Location: Newark
(51.2625°N, 13.3939°E)
Time: 11:35:04
(UTC+00:00)

Vanguard 2 Rocket - All Passes

Search period start: 13 November 2019 00:00
Search period end: 23 November 2019 00:00
Orbit: 554 x 3326 km, 32.9° (Epoch: 12 November)

Date Brightness Start Highest point End Pass type
(mag) Time Alt. Az. Time Alt. Az. Time Alt. Az.
13 Nov - 02:03:45 10° S 02:07:17 15° SSE 02:11:45 10° ESE visible
13 Nov - 04:13:10 10° SW 04:19:22 25° S 04:28:36 10° SE visible
13 Nov - 06:25:19 10° WSW 06:32:44 22° SSW 06:43:02 10° SSE daylight
13 Nov - 08:44:12 10° SW 08:46:39 11° SSW 08:49:15 10° SSW daylight
14 Nov - 03:14:50 10° SW 03:19:54 21° SSE 03:27:06 10° SE visible
14 Nov - 05:26:06 10° SW 05:32:44 22° S 05:42:14 10° SE visible
14 Nov - 07:41:09 10° SW 07:46:25 14° SSW 07:52:43 10° S daylight
15 Nov - 02:16:57 10° SSW 02:20:41 16° SSE 02:25:33 10° SE visible
15 Nov - 04:27:16 10° SW 04:32:59 22° S 04:41:11 10° SE visible
15 Nov - 06:40:35 10° SW 06:46:20 16° SSW 06:53:38 10° S daylight
16 Nov - 01:20:09 10° S 01:21:41 11° SSE 01:23:21 10° SE visible
16 Nov - 03:28:45 10° SW 03:33:29 20° S 03:40:04 10° SE visible
16 Nov - 05:40:55 10° SW 05:46:23 17° SSW 05:53:38 10° SSE visible
17 Nov - 02:30:36 10° SSW 02:34:13 16° SSE 02:38:56 10° SE visible
17 Nov - 04:41:48 10° SW 04:46:40 17° S 04:53:12 10° SSE visible
18 Nov - 01:33:04 10° S 01:35:09 12° SSE 01:37:33 10° SE visible
18 Nov - 03:43:04 10° SW 03:47:10 17° S 03:52:34 10° SSE visible
18 Nov - 05:57:25 10° SW 06:00:05 11° SSW 06:03:06 10° S daylight
19 Nov - 02:44:41 10° SSW 02:47:52 15° S 02:51:51 10° SE visible
19 Nov - 04:57:23 10° SW 05:00:24 12° SSW 05:03:57 10° S visible
20 Nov - 01:46:48 10° SSW 01:48:44 12° S 01:50:57 10° SSE visible
20 Nov - 03:58:11 10° SSW 04:00:54 12° S 04:04:06 10° SSE visible
21 Nov - 02:59:32 10° SSW 03:01:35 12° S 03:03:55 10° SSE visible
22 Nov - 02:01:42 10° S 02:02:24 10° S 02:03:08 10° S visible
